Regional Weather Roundup
Issued by NWS

Home | Current Version | Previous Version | Text Only | Print | Product List | Glossary On
Versions: 1 2 3 4 5 6 7 8 9 10 11 12 13 14 15 16 17 18 19 20 21 22 23 24 25 26 27 28 29 30 31 32 33 34 35 36 37 38 39 40 41 42 43 44 45 46 47 48 49 50
000
ASUS43 KDTX 301710
RWRMI
MICHIGAN HOURLY REGIONAL WEATHER ROUNDUP
NATIONAL WEATHER SERVICE DETROIT/PONTIAC MI
100 PM EDT FRI SEP 30 2016

NOTE: "FAIR" INDICATES FEW OR NO CLOUDS BELOW 12,000 FEET WITH NO
SIGNIFICANT WEATHER AND/OR OBSTRUCTION TO VISIBILITY.

MIZ047>049-052>055-059>063-066>070-074>076-081>083-301800-
SOUTHEAST LOWER MICHIGAN

CITY           SKY/WX    TMP DP  RH WIND       PRES   REMARKS
ADRIAN         CLOUDY    62  62 100 E15G22    30.13F
ALMA           CLOUDY    60  60 100 NE8G20    30.23S FOG
ANN ARBOR      CLOUDY    60  59  96 N10       30.14F
BAD AXE        LGT RAIN  59  57  92 E12       30.25S
CARO           CLOUDY    60  56  88 NE7       30.22S
DETROIT CITY   LGT RAIN  60  60 100 NE7       30.17S FOG
DETROIT        CLOUDY    62  61  96 NE9       30.16R
FLINT          CLOUDY    59  57  93 E10       30.20S FOG
GROSSE ILE     CLOUDY    64  58  82 E8        30.14S
HILLSDALE      CLOUDY    61  59  94 E13       30.12F
HOWELL         CLOUDY    58  58  99 NE7       30.18F FOG

CITY           SKY/WX    TMP DP  RH WIND       PRES   REMARKS
JACKSON        CLOUDY    60  60 100 NE12      30.15F
LAMBERTVILLE   CLOUDY    65  59  80 E7        30.12S
LANSING        CLOUDY    59  56  89 NE10      30.19F FOG
LAPEER         CLOUDY    58  57  96 E7        30.22R FOG
MASON          CLOUDY    59  58  97 N8        30.17F FOG
MONROE         CLOUDY    64  60  85 NE10G20   30.12F
MT. CLEMENS    DRIZZLE   59  59 100 NE15      30.16F FOG
PONTIAC        CLOUDY    58  56  93 E8        30.18S FOG
PORT HURON     CLOUDY    61  57  88 E9        30.21R
TRI CITIES     LGT RAIN  61  58  90 NE10      30.24S
MIDLAND        RAIN      60  58  92 NE7       30.24R
TROY           LGT RAIN  60  57  90 NE8       30.19F
SAGINAW HB     LGT RAIN  61  55  82 NE6       30.23R
$$
MIZ043>046-050>051-056>058-064>065-071>073-077>080-301800-
SOUTHWEST LOWER MICHIGAN

CITY           SKY/WX    TMP DP  RH WIND       PRES   REMARKS
BATTLE CREEK   CLOUDY    61  60  97 NE14      30.15F
BENTON HARBOR  PTSUNNY   67  59  75 E12G24    30.13S
BIG RAPIDS     CLOUDY    59  58  96 NE8       30.24S FOG
COLDWATER      CLOUDY    62  61  97 NE13      30.12F
FREMONT        CLOUDY    59  58  96 NE8       30.22S FOG
HOLLAND        CLOUDY    62  57  83 NE12G18   30.18S
GRAND RAPIDS   LGT RAIN  60  56  86 E14       30.20R
IONIA          LGT RAIN  58  56  95 NE9       30.19F
KALAMAZOO      CLOUDY    63  57  81 NE10G17   30.15S
LUDINGTON      CLOUDY    62  56  82 E16       30.24S
MARSHALL       CLOUDY    60  60  98 NE6       30.14F
MOUNT PLEASANT CLOUDY    60  59  96 NE7       30.23S FOG
MUSKEGON       CLOUDY    63  58  83 NE13G21   30.20F
SOUTH HAVEN    CLOUDY    66  60  82 E8        30.15S
$$
MIZ016>042-301800-
NORTHERN LOWER MICHIGAN

CITY           SKY/WX    TMP DP  RH WIND       PRES   REMARKS
ALPENA         CLOUDY    63  54  72 NE17G25   30.34S
BEAVER ISLAND  MOSUNNY   63  55  77 E13G22    30.34R
BELLAIRE       CLOUDY    65  56  71 NE13      30.28F
CADILLAC       CLOUDY    59  55  85 NE7       30.25F
CHARLEVOIX     PTSUNNY   64  55  72 E15       30.33F
FRANKFORT      CLOUDY    63  55  74 E6        30.27F
GAYLORD        CLOUDY    62  54  74 NE15G22   30.30F
GRAYLING       CLOUDY    62  56  80 E16       30.28F
HARBOR SPRINGS CLOUDY    64  55  73 E17       30.32S
HOUGHTON LAKE  CLOUDY    61  55  81 E16       30.27F
MANISTEE       CLOUDY    63  56  78 E10G18    30.25F
OSCODA         CLOUDY    63  56  76 NE13G21   30.28F
PELLSTON       SUNNY     66  54  65 E17G23    30.33F
ROGERS CITY    CLOUDY    64  56  74 E13G20    30.35F
TRAVERSE CITY  CLOUDY    65  55  70 E10       30.27F
$$
MIZ007>008-015-301800-
EASTERN UPPER MICHIGAN

CITY           SKY/WX    TMP DP  RH WIND       PRES   REMARKS
KINROSS        CLOUDY    63  51  65 NE10      30.37F
MACKINAC ISLAN PTSUNNY   64  53  69 E12G21    30.35S
NEWBERRY       SUNNY     65  53  64 NE13G18   30.35F
S. S. MARIE    SUNNY     68  50  52 E7        30.36F
MUNISING         N/A     63  56  78 NE23      30.36F
$$
MIZ004>006-011>014-085-301800-
CENTRAL UPPER MICHIGAN

CITY           SKY/WX    TMP DP  RH WIND       PRES   REMARKS
MANISTIQUE     SUNNY     68  53  58 NE12      30.33F
ESCANABA       MOSUNNY   66  54  65 N12       30.34S
MENOMINEE      CLOUDY    61  55  81 NE18      30.33S
SAWYER-GWINN   MOSUNNY   63  52  67 NE17G23   30.38F
$$
MIZ001>003-009>011-084-301800-
WESTERN UPPER MICHIGAN

CITY           SKY/WX    TMP DP  RH WIND       PRES   REMARKS
IRON MOUNTAIN  MOSUNNY   68  49  50 NE13G21   30.34F
HOUGHTON       SUNNY     65  54  67 E8        30.41F
COPPER HARBOR    N/A     63  58  83 VRB3      30.42F
IRONWOOD       SUNNY     61  54  77 N8        30.41S
$$

ABBREVIATIONS USED IN REMARKS
   TC - TEMPERATURE IN CELSIUS
  WCI - WIND CHILL INDEX
   HX - HEAT INDEX
  VSB - VISIBILITY




USA.gov is the U.S. government's official web portal to all federal, state and local government web resources and services.